Location: Lucerne Valley
(34.4439°N, 116.9669°E)
Time: 22:37:22
(UTC-07:00)

Tiangong 2 - Pass Details

Date: 07 October 2017
Orbit: 388 x 392 km, 42.8° (Epoch: 18 October)

Event Time Altitude Azimuth Distance (km) Brightness Sun altitude
Exits shadow 14:31:54 12° 252° (WSW) 1,324 3.2 -9.0°
Maximum altitude 14:34:51 63° 334° (NNW) 436 1.2 -8.4°
Drops below altitude 10° 14:38:02 10° 57° (ENE) 1,421 4.9 -7.8°
Sets 14:40:08 0° 60° (ENE) 2,278 6.1 -7.3°
